Regional Weather Roundup
Issued by NWS

Home | Current Version | Previous Version | Text Only | Print | Product List | Glossary Off
Versions: 1 2 3 4 5 6 7 8 9 10 11 12 13 14 15 16 17 18 19 20 21 22 23 24 25 26 27 28 29 30 31 32 33 34 35 36 37 38 39 40 41 42 43 44 45 46 47 48 49 50

000
ASUS43 KDTX 040110
RWRMI
MICHIGAN HOURLY REGIONAL WEATHER ROUNDUP
NATIONAL WEATHER SERVICE DETROIT/PONTIAC MI
ISSUED BY NATIONAL WEATHER SERVICE GRAND RAPIDS MI
800 PM EST SAT DEC 03 2016

NOTE: "FAIR" INDICATES FEW OR NO CLOUDS BELOW 12,000 FEET WITH NO
SIGNIFICANT WEATHER AND/OR OBSTRUCTION TO VISIBILITY.

MIZ047>049-052>055-059>063-066>070-074>076-081>083-040200-
SOUTHEAST LOWER MICHIGAN

CITY           SKY/WX    TMP DP  RH WIND       PRES   REMARKS
ADRIAN         CLOUDY    36  27  69 W5        30.30S WCI  32
ALMA           CLOUDY    35  29  78 W3        30.28F
ANN ARBOR      CLOUDY    35  30  82 W3        30.28S
BAD AXE        CLOUDY    36  32  87 CALM      30.26S
DETROIT CITY   CLOUDY    37  28  70 W5        30.29S WCI  33
DETROIT        CLOUDY    37  29  72 W5        30.29F WCI  33
FLINT          CLOUDY    36  30  79 W5        30.29S WCI  32
GROSSE ILE     CLOUDY    37  30  77 CALM      30.28F
HILLSDALE      CLOUDY    34  27  75 NW5       30.26F WCI  30
HOWELL         CLOUDY    35  28  75 CALM      30.28R

CITY           SKY/WX    TMP DP  RH WIND       PRES   REMARKS
JACKSON        CLOUDY    35  26  69 CALM      30.28S
LANSING        CLOUDY    35  25  66 W5        30.29S WCI  31
MASON          CLOUDY    35  30  84 CALM      30.28S
MONROE         CLOUDY    37  30  76 W6        30.29S WCI  32
MT. CLEMENS    CLOUDY    38  30  72 W6        30.25F WCI  33
PONTIAC        CLOUDY    35  29  78 W5        30.26F WCI  31
PORT HOPE        N/A     36  34  92 SW3       30.24F
PORT HURON     CLOUDY    37  30  75 CALM      30.27F
TRI CITIES     CLOUDY    37  31  78 W6        30.28S WCI  32
YPSILANTI      CLOUDY    37  31  78 CALM      30.29S
$$
MIZ043>046-050>051-056>058-064>065-071>073-077>080-040200-
SOUTHWEST LOWER MICHIGAN

CITY           SKY/WX    TMP DP  RH WIND       PRES   REMARKS
BATTLE CREEK   CLOUDY    35  27  72 CALM      30.28F
BENTON HARBOR  CLOUDY    36  26  67 W7        30.30S WCI  30
BIG RAPIDS     CLOUDY    34  28  77 W3        30.26F
COLDWATER      CLOUDY    35  25  68 CALM      30.28F
HOLLAND        CLOUDY    36  28  73 SW3       30.29S
GRAND RAPIDS   CLOUDY    35  27  72 W5        30.28F WCI  31
KALAMAZOO      CLOUDY    35  25  66 W5        30.29S WCI  31
MARSHALL       CLOUDY    35  25  67 CALM      30.28S
MOUNT PLEASANT CLOUDY    36  30  79 W5        30.26F WCI  32
MUSKEGON       FLURRIES  36  26  67 W3        30.28F
STURGIS        CLOUDY    35  27  74 CALM      30.29S
$$
MIZ016>042-040200-
NORTHERN LOWER MICHIGAN

CITY           SKY/WX    TMP DP  RH WIND       PRES   REMARKS
ALPENA         CLOUDY    36  31  82 CALM      30.25S
BEAVER ISLAND  CLOUDY    37  29  75 CALM      30.24F
BELLAIRE       LGT SNOW  34  33  97 CALM      30.26S
CADILLAC       CLOUDY    32  30  92 SW5       30.23S WCI  28
CHARLEVOIX     CLOUDY    36  34  93 SE5       30.27S WCI  32
GAYLORD        CLOUDY    34  31  88 SW3       30.22F
HOUGHTON LAKE  CLOUDY    35  30  82 W8        30.25S WCI  29
MANISTEE       CLOUDY    35  28  75 SW3       30.27F
OSCODA         CLOUDY    38  33  84 NW6       30.24F WCI  33
PELLSTON       CLOUDY    35  31  85 CALM      30.25S
TRAVERSE CITY  LGT RAIN  36  33  89 VRB3      30.24F
LUDINGTON      CLOUDY    34  28  79 CALM      30.27S
$$
MIZ007>008-015-040200-
EASTERN UPPER MICHIGAN

CITY           SKY/WX    TMP DP  RH WIND       PRES   REMARKS
KINROSS        CLOUDY    32  30  93 CALM      30.24F
MACKINAC ISLAN CLOUDY    35  31  87 N7        30.24S WCI  29
NEWBERRY       CLOUDY    32  32  99 CALM      30.24F
S. S. MARIE    MOCLDY    33  28  81 N3        30.24S
$$
MIZ004>006-011>014-085-040200-
CENTRAL UPPER MICHIGAN

CITY           SKY/WX    TMP DP  RH WIND       PRES   REMARKS
MANISTIQUE     CLOUDY    33  31  94 CALM      30.24S
ESCANABA       CLOUDY    35  29  78 W6        30.25S WCI  30
MENOMINEE      CLOUDY    32  23  69 SW6       30.28S WCI  26
SAWYER-GWINN   CLOUDY    32  28  86 SE3       30.22S
$$
MIZ001>003-009>011-084-040200-
WESTERN UPPER MICHIGAN

CITY           SKY/WX    TMP DP  RH WIND       PRES   REMARKS
IRON MOUNTAIN  CLOUDY    31  26  82 CALM      30.21F
HOUGHTON       CLOUDY    32  27  81 SW6       30.21R WCI  26
COPPER HARBOR    N/A     33  31  92 CALM      30.22F
IRONWOOD       CLOUDY    28  23  81 S3        30.21F
$$

ABBREVIATIONS USED IN REMARKS
   TC - TEMPERATURE IN CELSIUS
  WCI - WIND CHILL INDEX
   HX - HEAT INDEX
  VSB - VISIBILITY




USA.gov is the U.S. government's official web portal to all federal, state and local government web resources and services.